Regional Weather Roundup
Issued by NWS Charleston, WV

Home | Current Version | Previous Version | Text Only | Print | Product List | Glossary Off
Versions: 1 2 3 4 5 6 7 8 9 10 11 12 13 14 15 16 17 18 19 20 21 22 23 24 25 26 27 28 29 30 31 32 33 34 35 36 37 38 39 40 41 42 43 44 45 46 47 48 49 50

000
ASUS41 KRLX 011910
RWRRLX
West Virginia Regional Weather Roundup
National Weather Service Charleston WV
300 PM EDT SAT AUG 01 2015

Note: "fair" indicates few or no clouds below 12,000 feet with no
significant weather and/or obstructions to visibility.

WVZ003-012000-
Northern Panhandle of West Virginia

CITY           SKY/WX    TMP DP  RH WIND       PRES   REMARKS
WHEELING       MOSUNNY   81  52  36 W12       29.94F
$$

WVZ009-012000-
Northwest West Virginia

CITY           SKY/WX    TMP DP  RH WIND       PRES   REMARKS
PARKERSBURG    MOSUNNY   84  53  34 NW9       29.99S
$$

WVZ006-012000-
Western West Virginia

CITY           SKY/WX    TMP DP  RH WIND       PRES   REMARKS
HUNTINGTON     SUNNY     82  53  36 W6        29.98F
$$

WVZ015-012000-
West Central West Virginia

CITY           SKY/WX    TMP DP  RH WIND       PRES   REMARKS
CHARLESTON     MOSUNNY   84  54  35 NW8       29.98F
$$

WVZ022-031-012000-
North Central West Virginia

CITY           SKY/WX    TMP DP  RH WIND       PRES   REMARKS
CLARKSBURG     PTSUNNY   79  55  43 W8        29.96F
MORGANTOWN     SUNNY     84  50  30 W6G20     29.96S
$$

WVZ025-035-042-045-012000-
Southern West Virginia

CITY           SKY/WX    TMP DP  RH WIND       PRES   REMARKS
BECKLEY        MOSUNNY   78  52  40 NW10      30.05F
LOGAN            N/A     81  57  44 VRB5      29.98F
BLUEFIELD      SUNNY     80  54  40 W9        30.07F
LEWISBURG      MOSUNNY   80  50  34 W13       30.03S
$$

WVZ047-012000-
Northern Mountains of West Virginia

CITY           SKY/WX    TMP DP  RH WIND       PRES   REMARKS
ELKINS         MOSUNNY   77  51  40 NW10G17   30.01S
$$

WVZ052-012000-
Eastern Panhandle of West Virginia

CITY           SKY/WX    TMP DP  RH WIND       PRES   REMARKS
MARTINSBURG    MOSUNNY   87  54  32 W14       29.88F
PETERSBURG     MOSUNNY  N/A N/A N/A SW8       29.93S
$$


USA.gov is the U.S. government's official web portal to all federal, state and local government web resources and services.